TimeEDT,TemperatureF,Dew PointF,Humidity,Sea Level PressureIn,VisibilityMPH,Wind Direction,Wind SpeedMPH,Gust SpeedMPH,PrecipitationIn,Events,Conditions,WindDirDegrees,DateUTC
12:53 AM,81.0,75.9,85,29.82,10.0,WSW,10.4,-,N/A,,Clear,240,2013-09-26 04:53:00
1:53 AM,82.0,77.0,85,29.81,10.0,WSW,8.1,-,N/A,,Scattered Clouds,250,2013-09-26 05:53:00
2:04 AM,82.4,77.0,84,29.81,10.0,WSW,6.9,-,N/A,,Mostly Cloudy,250,2013-09-26 06:04:00
2:53 AM,82.0,77.0,85,29.81,10.0,West,8.1,-,N/A,,Mostly Cloudy,260,2013-09-26 06:53:00
3:03 AM,82.4,77.0,84,29.81,10.0,West,8.1,-,N/A,,Scattered Clouds,260,2013-09-26 07:03:00
3:53 AM,82.0,77.0,85,29.81,10.0,WSW,9.2,-,N/A,,Partly Cloudy,250,2013-09-26 07:53:00
4:53 AM,82.0,77.0,85,29.80,10.0,West,9.2,-,N/A,,Clear,260,2013-09-26 08:53:00
5:53 AM,82.0,78.1,88,29.80,10.0,West,8.1,-,N/A,,Partly Cloudy,260,2013-09-26 09:53:00
6:53 AM,82.0,77.0,85,29.81,10.0,West,9.2,-,N/A,,Partly Cloudy,260,2013-09-26 10:53:00
7:53 AM,82.0,78.1,88,29.82,10.0,West,9.2,-,N/A,,Clear,260,2013-09-26 11:53:00
8:53 AM,84.0,78.1,82,29.84,10.0,West,11.5,-,N/A,,Mostly Cloudy,270,2013-09-26 12:53:00
9:04 AM,82.4,77.0,84,29.85,10.0,West,11.5,-,N/A,,Scattered Clouds,280,2013-09-26 13:04:00
9:53 AM,84.9,79.0,82,29.86,9.0,West,12.7,-,0.00,Rain,Light Rain,280,2013-09-26 13:53:00
10:53 AM,86.0,77.0,74,29.87,10.0,West,12.7,-,0.00,,Clear,280,2013-09-26 14:53:00
11:53 AM,87.1,77.0,72,29.87,10.0,West,13.8,-,N/A,,Clear,280,2013-09-26 15:53:00
12:53 PM,87.1,75.9,69,29.85,10.0,WNW,15.0,-,N/A,,Clear,300,2013-09-26 16:53:00
1:53 PM,87.1,77.0,72,29.83,10.0,West,12.7,-,N/A,,Scattered Clouds,280,2013-09-26 17:53:00
2:53 PM,88.0,79.0,75,29.82,10.0,WNW,13.8,24.2,N/A,,Clear,290,2013-09-26 18:53:00
3:53 PM,87.1,75.0,67,29.81,10.0,NW,11.5,-,N/A,,Mostly Cloudy,320,2013-09-26 19:53:00
4:53 PM,87.1,75.9,69,29.81,10.0,NW,12.7,-,N/A,,Scattered Clouds,320,2013-09-26 20:53:00
5:23 PM,87.8,75.2,66,29.81,10.0,NNW,9.2,-,N/A,,Mostly Cloudy,330,2013-09-26 21:23:00
5:49 PM,86.0,73.4,66,29.82,10.0,NNW,9.2,-,N/A,,Scattered Clouds,330,2013-09-26 21:49:00
5:53 PM,86.0,73.9,67,29.82,10.0,North,8.1,-,N/A,,Scattered Clouds,360,2013-09-26 21:53:00
6:53 PM,82.9,72.0,69,29.83,10.0,NW,9.2,-,N/A,,Clear,310,2013-09-26 22:53:00
7:53 PM,80.1,72.0,76,29.84,10.0,NW,8.1,-,N/A,,Clear,320,2013-09-26 23:53:00
8:53 PM,79.0,72.0,79,29.85,10.0,NW,6.9,-,N/A,,Clear,320,2013-09-27 00:53:00
9:53 PM,77.0,72.0,84,29.86,10.0,NNW,5.8,-,N/A,,Clear,330,2013-09-27 01:53:00
10:53 PM,77.0,72.0,84,29.86,10.0,NNW,6.9,-,N/A,,Clear,340,2013-09-27 02:53:00
11:53 PM,77.0,72.0,84,29.86,10.0,NNW,3.5,-,N/A,,Clear,340,2013-09-27 03:53:00